sat.trackr.live / text

‹ back to catalog

STARLINK-4036

NORAD 52837 · 2022-062H

PAYLOAD ACTIVE UNKNOWN

§ Identity

Operator
Country
US
Launch date
2022-06-17
Launch site
AFETR
Launch vehicle
Mass (kg)
RCS (m²)

Purposes: comms

External: N2YO · Heavens-Above · Gunter

§ Orbital elements

Epoch: 2026-09-19T22:32:06.798048Z

Period
93.85 min
Inclination
53.1587°
Eccentricity
0.0001239
Mean motion
15.34395410 rev/d
Perigee alt
461.9 km
Apogee alt
463.6 km
Semi-major
6,840.9 km
B*
4.3537e-5
RAAN
230.6748°
Arg perigee
91.8175°
Mean anomaly
268.2970°
Rev number
23,526

§ Raw data

STARLINK-40361 52837U 22062H   26262.93896757  .00001095  00000+0  43537-4 0  99992 52837  53.1587 230.6748 0001239  91.8175 268.2970 15.34395410235269

JSON: /api/v1/satellites/52837 · /tle

For live sub-satellite position, see the globe view (requires WebGL).

§ Visibility from observer

Set your observer location to see the next 7 days of passes ≥ 10°. The values pass through the URL so the page stays shareable.

No JS? Fill the form by hand. The geolocation button needs JavaScript.